FW5912 Weather Reports


Display with metric or nautical units.
time (UTC)temp
F
wind
direction
speed
MPH
gust
MPH
rain 1hr
in
rain 24hr
in
rain mn
in
humidity
%
barometer
mb
20260508141555 70 39 6.0 10.0 0.00 0.00 0.00 91 1013.8
20260508140056 71 337 4.0 12.0 0.00 0.00 0.00 90 1013.7
20260508134621 72 35 6.0 11.0 0.00 0.00 0.00 91 1013.4
20260508133110 72 38 5.0 10.0 0.00 0.00 0.00 91 1013.6
20260508131557 71 52 8.0 15.0 0.00 0.00 0.00 91 1013.8
20260508130056 71 36 6.0 14.0 0.00 0.00 0.00 91 1013.8
20260508124555 71 56 8.0 16.0 0.00 0.00 0.00 91 1013.6
20260508123102 71 50 8.0 16.0 0.00 0.00 0.00 90 1013.2
20260508121600 71 57 7.0 12.0 0.00 0.00 0.00 90 1013.3
20260508120056 71 49 6.0 13.0 0.00 0.00 0.00 90 1013.3
20260508114604 72 65 7.0 12.0 0.00 0.00 0.00 90 1013.3
20260508113103 74 55 4.0 9.0 0.00 0.00 0.00 91 1013.5
20260508111600 74 82 5.0 11.0 0.00 0.00 0.00 91 1013.5
20260508110058 74 49 6.0 10.0 0.00 0.00 0.00 90 1013.3
20260508104554 74 56 4.0 11.0 0.00 0.00 0.00 90 1013.5
20260508103056 74 55 6.0 11.0 0.00 0.00 0.00 90 1013.1
20260508101557 74 59 5.0 10.0 0.00 0.00 0.00 90 1013.2
20260508094605 74 74 5.0 11.0 0.00 0.00 0.00 90 1013.3
20260508093052 74 111 5.0 9.0 0.00 0.00 0.00 90 1013.3
20260508091614 74 49 7.0 10.0 0.00 0.00 0.00 90 1013.3
20260508090106 74 67 5.0 10.0 0.00 0.00 0.00 90 1013.3
20260508084554 74 86 5.0 13.0 0.00 0.00 0.00 90 1013.3
20260508083057 74 65 5.0 10.0 0.00 0.00 0.00 90 1013.3
20260508081555 74 61 5.0 9.0 0.00 0.00 0.00 90 1013.6
20260508080052 74 68 4.0 11.0 0.00 0.00 0.00 90 1013.6
20260508074551 74 76 9.0 15.0 0.00 0.00 0.00 89 1013.3
20260508073053 74 54 6.0 12.0 0.00 0.00 0.00 89 1013.8
20260508071557 74 69 6.0 17.0 0.00 0.00 0.00 89 1014.0
20260508070100 73 53 13.0 17.0 0.00 0.00 0.00 88 1013.1
20260508064557 74 136 8.0 19.0 0.00 0.00 0.00 87 1013.5
20260508063133 74 88 13.0 20.0 0.00 0.00 0.00 86 1012.8
20260508061556 74 97 12.0 20.0 0.00 0.00 0.00 86 1013.8
20260508060058 74 98 11.0 20.0 0.00 0.00 0.00 85 1014.0
20260508054555 74 77 13.0 20.0 0.00 0.00 0.00 84 1013.7
20260508053059 74 134 12.0 20.0 0.00 0.00 0.00 84 1013.4
20260508051617 74 74 11.0 20.0 0.00 0.00 0.00 84 1013.7
20260508050057 74 41 8.0 16.0 0.00 0.00 0.00 84 1014.4
20260508044552 75 84 9.0 16.0 0.00 0.00 0.00 84 1014.0
20260508043052 75 116 8.0 16.0 0.00 0.00 0.00 84 1014.9
20260508041555 75 67 6.0 14.0 0.00 0.00 0.00 84 1015.2
20260508040052 75 92 8.0 17.0 0.00 0.00 0.00 84 1015.4
20260508034555 75 55 8.0 14.0 0.00 0.00 0.00 83 1015.4
20260508033055 75 65 10.0 18.0 0.00 0.00 0.00 83 1015.0
20260508031605 75 50 7.0 14.0 0.00 0.00 0.00 83 1015.2
20260508030100 75 54 8.0 14.0 0.00 0.00 0.00 82 1015.1
20260508024552 75 53 8.0 15.0 0.00 0.00 0.00 83 1015.3
20260508023053 75 42 10.0 18.0 0.00 0.00 0.00 82 1015.0
20260508021556 75 53 6.0 14.0 0.00 0.00 0.00 82 1015.0
20260508020106 75 62 6.0 13.0 0.00 0.00 0.00 82 1015.0
20260508014557 75 64 8.0 14.0 0.00 0.00 0.00 82 1014.9
20260508013057 75 44 7.0 13.0 0.00 0.00 0.00 82 1014.9
20260508011556 74 55 7.0 12.0 0.00 0.00 0.00 83 1014.4
20260508010116 74 40 4.0 10.0 0.00 0.00 0.00 83 1014.5
20260508004556 74 49 7.0 13.0 0.00 0.00 0.00 84 1014.1
20260508003103 74 64 6.0 12.0 0.00 0.00 0.00 84 1014.3
20260508001558 74 57 4.0 11.0 0.00 0.00 0.00 84 1014.3
20260508000054 74 45 6.0 11.0 0.00 0.00 0.00 83 1014.2
20260507234558 74 67 4.0 11.0 0.00 0.00 0.00 83 1014.3
20260507233054 74 57 6.0 10.0 0.00 0.00 0.00 83 1014.3
20260507231556 74 78 5.0 10.0 0.00 0.00 0.00 82 1014.2
20260507230109 75 65 6.0 10.0 0.00 0.00 0.00 80 1014.2
20260507224556 75 40 6.0 10.0 0.00 0.00 0.00 80 1014.3
20260507223157 74 346 6.0 12.0 0.00 0.00 0.00 81 1014.1
20260507221555 73 36 9.0 13.0 0.00 0.00 0.00 81 1014.3
20260507220053 73 15 9.0 15.0 0.00 0.00 0.00 81 1014.5
20260507214559 72 39 6.0 12.0 0.00 0.00 0.00 81 1014.6
20260507213122 72 43 9.0 15.0 0.00 0.00 0.00 81 1014.5
20260507211556 71 330 10.0 15.0 0.00 0.00 0.00 82 1014.7
20260507204555 70 336 10.0 15.0 0.00 0.00 0.00 82 1015.0
20260507203059 70 324 8.0 15.0 0.00 0.00 0.00 83 1015.2
20260507201619 69 16 8.0 15.0 0.00 0.00 0.00 83 1015.4
20260507200108 69 45 10.0 16.0 0.00 0.00 0.00 84 1015.5
20260507194557 68 60 10.0 17.0 0.00 0.00 0.00 85 1015.6
20260507193055 68 32 11.0 17.0 0.00 0.00 0.00 85 1015.7
20260507191557 68 40 9.0 16.0 0.00 0.00 0.00 86 1015.9
20260507190057 68 9 7.0 15.0 0.00 0.00 0.00 86 1015.8
20260507184558 67 65 12.0 17.0 0.00 0.00 0.00 85 1015.9
20260507183059 67 17 11.0 18.0 0.00 0.00 0.00 85 1016.2
20260507181605 68 352 11.0 15.0 0.00 0.00 0.00 85 1016.3
20260507180055 68 24 11.0 18.0 0.00 0.00 0.00 85 1016.5
20260507174602 68 47 13.0 19.0 0.00 0.00 0.00 85 1016.3
20260507173101 68 51 11.0 17.0 0.00 0.00 0.00 86 1016.3
20260507171603 67 29 11.0 20.0 0.00 0.00 0.00 86 1016.4
20260507170055 66 39 14.0 21.0 0.00 0.00 0.00 86 1016.4
20260507164553 67 16 11.0 21.0 0.00 0.00 0.00 87 1016.6
20260507163057 67 333 12.0 20.0 0.00 0.00 0.00 86 1016.3
20260507161608 67 30 11.0 19.0 0.00 0.00 0.00 87 1016.2
20260507160058 66 24 12.0 19.0 0.00 0.00 0.00 88 1016.1
20260507154555 66 336 12.0 25.0 0.00 0.00 0.00 88 1016.4
20260507153112 67 352 10.0 19.0 0.00 0.00 0.00 88 1016.6
20260507151602 67 38 11.0 20.0 0.00 0.00 0.00 88 1016.1
20260507144554 66 44 15.0 23.0 0.00 0.00 0.00 88 1016.0
20260507143058 67 344 13.0 20.0 0.00 0.00 0.00 88 1016.1